Location: Unspecified
(48.7670°N, 0.0000°E)
Time: 13:58:36
(UTC+00:00)

Altair - Pass Details

Date: 02 July 2019
Orbit: 1501 x 1683 km, 47.2° (Epoch: 16 August)

Event Time Altitude Azimuth Distance (km) Brightness Sun altitude
Rises 01:00:53 0° 288° (WNW) 4,824 10.2 -17.0°
Reaches altitude 10° 01:05:16 10° 271° (W) 3,866 9.5 -16.9°
Maximum altitude 01:11:14 18° 233° (SW) 3,292 8.8 -16.6°
Enters shadow 01:12:49 17° 222° (SW) 3,344 8.7 -16.5°
Drops below altitude 10° 01:17:19 10° 195° (SSW) 3,921 - -16.3°
Sets 01:21:51 0° 178° (S) 4,917 - -16.1°
